Weather History for Kankakee, IL

Change the Weather History Date:

Friday, June 8, 2012

  Actual Average Record
Temperature  
Mean Temperature 68 °F -  
Max Temperature 86 °F 81 °F 98 °F (2011)
Min Temperature 50 °F 57 °F 44 °F (1977)
Cooling Degree Days 3    
Growing Degree Days 18 (Base 50)    
Moisture  
Dew Point 47 °F    
Average Humidity 47    
Maximum Humidity 84    
Minimum Humidity 23    
Precipitation  
Precipitation 0.00 in - - ()
Sea Level Pressure  
Sea Level Pressure 30.04 in    
Wind  
Wind Speed 3 mph (WSW)    
Max Wind Speed 10 mph    
Max Gust Speed -    
Visibility 10 miles    
Events      
Averages and records for this station are not official NWS values.
T = Trace of Precipitation, MM = Missing Value Source: NWS Daily Summary

Daily Weather History Graph

Daily Weather History Graph

Search for Another Location

Airport:

Trip Planner

Search our weather history database for the weather conditions in past years. The results will help you decide how hot, cold, wet, or windy it might be!

Date:

Astronomy

Jun. 08, 2012 Rise Set
Actual Time 5:18 AM CDT 8:22 PM CDT
Civil Twilight 4:45 AM CDT 8:55 PM CDT
Nautical Twilight 4:03 AM CDT 9:38 PM CDT
Astronomical Twilight 3:13 AM CDT 10:28 PM CDT
Moon 11:44 PM CDT (6/8) 10:00 AM CDT (6/8)
Length of Visible Light 16h 10m
Length of Day
15h 03m
Waning Gibbous, 77% of the Moon is Illuminated
Jun 8
Waning Gibbous
Jun 11
Last Quarter
Jun 19
New
Jun 26
First Quarter
Jul 3
Full

Hourly Weather History & Observations

Time (CDT) Temp. Dew Point Humidity Pressure Visibility Wind Dir Wind Speed Gust Speed Precip Events Conditions
12:15 AM 60.1 °F 45.3 °F 58% 30.09 in 10.0 mi Calm Calm - N/A   Clear
12:35 AM 60.1 °F 45.1 °F 58% 30.09 in 10.0 mi Calm Calm - N/A   Clear
12:55 AM 57.6 °F 46.2 °F 66% 30.09 in 10.0 mi Calm Calm - N/A   Clear
1:15 AM 57.9 °F 45.5 °F 63% 30.09 in 10.0 mi Calm Calm - N/A   Clear
1:35 AM 55.4 °F 45.9 °F 70% 30.09 in 10.0 mi Calm Calm - N/A   Clear
1:55 AM 55.0 °F 45.7 °F 71% 30.10 in 10.0 mi Calm Calm - N/A   Clear
2:15 AM 54.9 °F 46.2 °F 73% 30.10 in 10.0 mi Calm Calm - N/A   Clear
2:35 AM 54.3 °F 46.4 °F 75% 30.10 in 10.0 mi Calm Calm - N/A   Clear
2:55 AM 54.1 °F 45.9 °F 74% 30.10 in 10.0 mi Calm Calm - N/A   Clear
3:15 AM 52.9 °F 46.4 °F 79% 30.10 in 10.0 mi Calm Calm - N/A   Clear
3:35 AM 53.2 °F 46.4 °F 78% 30.09 in 10.0 mi Calm Calm - N/A   Clear
3:55 AM 51.8 °F 45.7 °F 80% 30.09 in 10.0 mi Calm Calm - N/A   Clear
4:15 AM 52.0 °F 46.4 °F 81% 30.09 in 10.0 mi Calm Calm - N/A   Clear
4:35 AM 51.8 °F 46.6 °F 82% 30.10 in 10.0 mi Calm Calm - N/A   Clear
4:55 AM 52.5 °F 46.4 °F 80% 30.10 in 10.0 mi Calm Calm - N/A   Clear
5:15 AM 50.7 °F 45.5 °F 82% 30.11 in 10.0 mi Calm Calm - N/A   Clear
5:35 AM 50.5 °F 45.9 °F 84% 30.11 in 10.0 mi Calm Calm - N/A   Clear
5:55 AM 52.0 °F 46.4 °F 81% 30.11 in 10.0 mi Calm Calm - N/A   Clear
6:15 AM 53.6 °F 47.8 °F 81% 30.11 in 10.0 mi Calm Calm - N/A   Clear
6:35 AM 56.8 °F 50.2 °F 78% 30.11 in 10.0 mi Calm Calm - N/A   Clear
6:55 AM 59.0 °F 50.5 °F 73% 30.11 in 10.0 mi Calm Calm - N/A   Clear
7:15 AM 62.2 °F 52.7 °F 71% 30.11 in 10.0 mi Calm Calm - N/A   Clear
7:35 AM 66.6 °F 50.7 °F 57% 30.11 in 10.0 mi SSW 4.6 mph - N/A   Clear
7:55 AM 68.9 °F 49.8 °F 51% 30.11 in 10.0 mi SSW 4.6 mph - N/A   Clear
8:15 AM 71.4 °F 50.5 °F 48% 30.11 in 10.0 mi SSW 4.6 mph - N/A   Clear
8:35 AM 73.8 °F 49.8 °F 43% 30.11 in 10.0 mi SW 3.5 mph - N/A   Clear
8:55 AM 74.7 °F 49.5 °F 41% 30.10 in 10.0 mi Calm Calm - N/A   Clear
9:15 AM 76.6 °F 51.3 °F 41% 30.11 in 10.0 mi WSW 4.6 mph - N/A   Clear
9:35 AM 78.1 °F 49.8 °F 37% 30.10 in 10.0 mi WSW 3.5 mph - N/A   Clear
9:55 AM 80.4 °F 48.9 °F 33% 30.10 in 10.0 mi West 5.8 mph - N/A   Clear
10:15 AM 80.8 °F 47.3 °F 31% 30.09 in 10.0 mi WSW 6.9 mph - N/A   Clear
10:35 AM 81.3 °F 46.2 °F 29% 30.09 in 10.0 mi West 3.5 mph - N/A   Clear
10:55 AM 81.9 °F 47.3 °F 30% 30.08 in 10.0 mi SW 8.1 mph - N/A   Clear
11:15 AM 82.9 °F 46.6 °F 28% 30.08 in 10.0 mi SW 9.2 mph - N/A   Clear
11:35 AM 83.3 °F 47.3 °F 28% 30.08 in 10.0 mi WSW 6.9 mph - N/A   Scattered Clouds
11:55 AM 83.8 °F 46.2 °F 27% 30.07 in 10.0 mi SSW 5.8 mph - N/A   Scattered Clouds
12:15 PM 81.9 °F 44.2 °F 27% 30.06 in 10.0 mi NNW 5.8 mph - N/A   Scattered Clouds
12:35 PM 83.5 °F 45.9 °F 27% 30.06 in 10.0 mi WSW 9.2 mph - N/A   Scattered Clouds
12:55 PM 84.2 °F 45.9 °F 26% 30.06 in 10.0 mi WSW 6.9 mph - N/A   Clear
1:15 PM 84.0 °F 45.9 °F 26% 30.05 in 10.0 mi West 10.4 mph - N/A   Clear
1:35 PM 84.2 °F 45.3 °F 26% 30.04 in 10.0 mi SSW 5.8 mph - N/A   Clear
1:55 PM 85.5 °F 45.3 °F 25% 30.03 in 10.0 mi South 5.8 mph - N/A   Clear
2:15 PM 85.3 °F 46.4 °F 26% 30.02 in 10.0 mi West 10.4 mph - N/A   Clear
2:35 PM 85.8 °F 45.7 °F 25% 30.02 in 10.0 mi SW 8.1 mph - N/A   Clear
2:55 PM 84.9 °F 45.0 °F 25% 30.01 in 10.0 mi WNW 6.9 mph - N/A   Clear
3:15 PM 84.9 °F 43.9 °F 24% 30.01 in 10.0 mi WSW 3.5 mph - N/A   Clear
3:35 PM 85.8 °F 44.4 °F 23% 30.01 in 10.0 mi West 6.9 mph - N/A   Scattered Clouds
3:55 PM 85.5 °F 43.7 °F 23% 30.00 in 10.0 mi WNW 5.8 mph - N/A   Scattered Clouds
4:15 PM 85.5 °F 43.5 °F 23% 29.99 in 10.0 mi WNW 6.9 mph - N/A   Clear
4:35 PM 86.4 °F 46.2 °F 25% 29.99 in 10.0 mi SW 5.8 mph - N/A   Clear
4:55 PM 86.0 °F 43.7 °F 23% 29.98 in 10.0 mi West 4.6 mph - N/A   Clear
5:15 PM 86.0 °F 45.7 °F 24% 29.97 in 10.0 mi WSW 8.1 mph - N/A   Clear
5:35 PM 85.6 °F 45.5 °F 25% 29.96 in 10.0 mi WSW 5.8 mph - N/A   Clear
5:55 PM 84.9 °F 45.7 °F 25% 29.96 in 10.0 mi West 8.1 mph - N/A   Clear
6:15 PM 84.2 °F 45.0 °F 25% 29.96 in 10.0 mi WSW 4.6 mph - N/A   Clear
6:35 PM 84.2 °F 45.7 °F 26% 29.95 in 10.0 mi West 4.6 mph - N/A   Clear
6:55 PM 83.3 °F 46.2 °F 27% 29.95 in 10.0 mi WSW 6.9 mph - N/A   Clear
7:15 PM 82.6 °F 44.4 °F 26% 29.95 in 10.0 mi WSW 3.5 mph - N/A   Clear
7:35 PM 80.8 °F 48.4 °F 32% 29.95 in 10.0 mi WSW 3.5 mph - N/A   Clear
7:55 PM 79.7 °F 47.7 °F 32% 29.95 in 10.0 mi WSW 4.6 mph - N/A   Clear
8:15 PM 78.1 °F 47.3 °F 34% 29.95 in 10.0 mi WSW 4.6 mph - N/A   Clear
8:35 PM 75.4 °F 48.6 °F 39% 29.95 in 10.0 mi SW 3.5 mph - N/A   Clear
8:55 PM 73.6 °F 49.1 °F 42% 29.95 in 10.0 mi SW 4.6 mph - N/A   Clear
9:15 PM 71.6 °F 49.8 °F 46% 29.96 in 10.0 mi SW 4.6 mph - N/A   Clear
9:35 PM 71.1 °F 49.3 °F 46% 29.97 in 10.0 mi SW 5.8 mph - N/A   Clear
9:55 PM 69.1 °F 50.2 °F 51% 29.97 in 10.0 mi SSW 5.8 mph - N/A   Clear
10:15 PM 69.6 °F 49.6 °F 49% 29.97 in 10.0 mi SSW 5.8 mph - N/A   Clear
10:35 PM 67.8 °F 50.0 °F 53% 29.97 in 10.0 mi SW 4.6 mph - N/A   Clear
10:55 PM 68.5 °F 49.5 °F 50% 29.97 in 10.0 mi SW 6.9 mph - N/A   Clear
11:15 PM 66.0 °F 50.4 °F 57% 29.97 in 10.0 mi South 5.8 mph - N/A   Clear
11:35 PM 62.8 °F 50.5 °F 64% 29.97 in 10.0 mi South 6.9 mph - N/A   Clear
11:55 PM 60.8 °F 50.5 °F 69% 29.98 in 10.0 mi SSW 5.8 mph - N/A   Clear